Time,TemperatureF,DewpointF,PressureIn,WindDirection,WindDirectionDegrees,WindSpeedMPH,WindSpeedGustMPH,Humidity,HourlyPrecipIn,Conditions,Clouds,dailyrainin,SoftwareType,DateUTC
2013-03-26 00:02:00,18.0,12.0,30.33,NW,320,5.0,-999.0,78,-99.99,,,-99.99,,2013-03-26 05:02:00,
2013-03-26 00:12:00,18.0,12.0,30.33,NW,320,5.0,-999.0,78,-99.99,,,-99.99,,2013-03-26 05:12:00,
2013-03-26 00:22:00,18.0,12.0,30.33,NW,320,5.0,-999.0,78,-99.99,,,-99.99,,2013-03-26 05:22:00,
2013-03-26 00:32:00,16.0,9.0,30.33,North,0,0.0,-999.0,72,-99.99,,,-99.99,,2013-03-26 05:32:00,
2013-03-26 00:42:00,16.0,9.0,30.33,North,0,0.0,-999.0,72,-99.99,,,-99.99,,2013-03-26 05:42:00,
2013-03-26 00:52:00,12.0,7.0,30.33,North,0,0.0,-999.0,78,-99.99,,,-99.99,,2013-03-26 05:52:00,
2013-03-26 01:02:00,12.0,7.0,30.33,North,0,0.0,-999.0,78,-99.99,,,-99.99,,2013-03-26 06:02:00,
2013-03-26 01:12:00,12.0,7.0,30.33,North,0,0.0,-999.0,78,-99.99,,,-99.99,,2013-03-26 06:12:00,
2013-03-26 01:22:00,12.0,7.0,30.33,North,0,0.0,-999.0,78,-99.99,,,-99.99,,2013-03-26 06:22:00,
2013-03-26 01:32:00,12.0,7.0,30.33,North,0,0.0,-999.0,78,-99.99,,,-99.99,,2013-03-26 06:32:00,
2013-03-26 01:42:00,12.0,7.0,30.33,North,0,0.0,-999.0,78,-99.99,,,-99.99,,2013-03-26 06:42:00,
2013-03-26 01:52:00,14.0,9.0,30.33,North,0,0.0,-999.0,78,-99.99,,,-99.99,,2013-03-26 06:52:00,
2013-03-26 02:02:00,14.0,9.0,30.33,North,0,0.0,-999.0,78,-99.99,,,-99.99,,2013-03-26 07:02:00,
2013-03-26 02:12:00,12.0,9.0,30.33,North,0,0.0,-999.0,85,-99.99,,,-99.99,,2013-03-26 07:12:00,
2013-03-26 02:22:00,12.0,9.0,30.33,North,0,0.0,-999.0,85,-99.99,,,-99.99,,2013-03-26 07:22:00,
2013-03-26 02:33:00,14.0,9.0,30.33,North,0,0.0,-999.0,78,-99.99,,,-99.99,,2013-03-26 07:33:00,
2013-03-26 02:42:00,14.0,9.0,30.33,North,0,0.0,-999.0,78,-99.99,,,-99.99,,2013-03-26 07:42:00,
2013-03-26 02:52:00,16.0,10.0,30.33,North,0,0.0,-999.0,78,-99.99,,,-99.99,,2013-03-26 07:52:00,
2013-03-26 03:02:00,16.0,10.0,30.33,North,0,0.0,-999.0,78,-99.99,,,-99.99,,2013-03-26 08:02:00,
2013-03-26 03:12:00,18.0,12.0,30.33,North,0,0.0,-999.0,78,-99.99,,,-99.99,,2013-03-26 08:12:00,
2013-03-26 03:22:00,18.0,12.0,30.33,North,0,0.0,-999.0,78,-99.99,,,-99.99,,2013-03-26 08:22:00,
2013-03-26 03:32:00,19.0,14.0,30.32,North,350,6.0,-999.0,79,-99.99,,,-99.99,,2013-03-26 08:32:00,
2013-03-26 03:42:00,19.0,14.0,30.32,North,350,6.0,-999.0,79,-99.99,,,-99.99,,2013-03-26 08:42:00,
2013-03-26 03:52:00,19.0,14.0,30.32,North,0,0.0,-999.0,79,-99.99,,,-99.99,,2013-03-26 08:52:00,
2013-03-26 04:02:00,19.0,14.0,30.32,North,0,0.0,-999.0,79,-99.99,,,-99.99,,2013-03-26 09:02:00,
2013-03-26 04:12:00,19.0,14.0,30.32,North,350,6.0,-999.0,79,-99.99,,,-99.99,,2013-03-26 09:12:00,
2013-03-26 04:22:00,19.0,14.0,30.32,North,350,6.0,-999.0,79,-99.99,,,-99.99,,2013-03-26 09:22:00,
2013-03-26 04:33:00,19.0,16.0,30.32,North,350,5.0,-999.0,85,-99.99,,,-99.99,,2013-03-26 09:33:00,
2013-03-26 04:43:00,19.0,16.0,30.32,North,350,5.0,-999.0,85,-99.99,,,-99.99,,2013-03-26 09:43:00,
2013-03-26 04:52:00,19.0,14.0,30.32,North,360,6.0,-999.0,79,-99.99,,,-99.99,,2013-03-26 09:52:00,
2013-03-26 05:02:00,19.0,14.0,30.32,North,360,6.0,-999.0,79,-99.99,,,-99.99,,2013-03-26 10:02:00,
2013-03-26 05:12:00,19.0,12.0,30.32,North,350,6.0,-999.0,73,-99.99,,,-99.99,,2013-03-26 10:12:00,
2013-03-26 05:22:00,19.0,12.0,30.32,North,350,6.0,-999.0,73,-99.99,,,-99.99,,2013-03-26 10:22:00,
2013-03-26 05:32:00,18.0,12.0,30.32,North,0,0.0,-999.0,78,-99.99,,,-99.99,,2013-03-26 10:32:00,
2013-03-26 05:42:00,18.0,12.0,30.32,North,0,0.0,-999.0,78,-99.99,,,-99.99,,2013-03-26 10:42:00,
2013-03-26 05:52:00,16.0,10.0,30.32,North,0,0.0,-999.0,78,-99.99,,,-99.99,,2013-03-26 10:52:00,
2013-03-26 06:03:00,16.0,10.0,30.32,North,0,0.0,-999.0,78,-99.99,,,-99.99,,2013-03-26 11:03:00,
2013-03-26 06:12:00,12.0,7.0,30.32,North,0,0.0,-999.0,78,-99.99,,,-99.99,,2013-03-26 11:12:00,
2013-03-26 06:22:00,12.0,7.0,30.32,North,0,0.0,-999.0,78,-99.99,,,-99.99,,2013-03-26 11:22:00,
2013-03-26 06:32:00,10.0,7.0,30.32,North,-999,-999.0,-999.0,85,-99.99,,,-99.99,,2013-03-26 11:32:00,
2013-03-26 06:42:00,10.0,7.0,30.32,North,-999,-999.0,-999.0,85,-99.99,,,-99.99,,2013-03-26 11:42:00,
2013-03-26 06:52:00,10.0,7.0,30.32,North,-999,-999.0,-999.0,85,-99.99,,,-99.99,,2013-03-26 11:52:00,
2013-03-26 07:03:00,10.0,7.0,30.32,North,-999,-999.0,-999.0,85,-99.99,,,-99.99,,2013-03-26 12:03:00,
2013-03-26 07:12:00,10.0,7.0,30.33,North,-999,-999.0,-999.0,85,-99.99,,,-99.99,,2013-03-26 12:12:00,
2013-03-26 07:22:00,10.0,7.0,30.33,North,-999,-999.0,-999.0,85,-99.99,,,-99.99,,2013-03-26 12:22:00,
2013-03-26 07:32:00,10.0,7.0,30.33,North,-999,-999.0,-999.0,85,-99.99,,,-99.99,,2013-03-26 12:32:00,
2013-03-26 07:42:00,10.0,7.0,30.33,North,-999,-999.0,-999.0,85,-99.99,,,-99.99,,2013-03-26 12:42:00,
2013-03-26 07:52:00,10.0,7.0,30.33,North,-999,-999.0,-999.0,85,-99.99,,,-99.99,,2013-03-26 12:52:00,
2013-03-26 08:03:00,10.0,7.0,30.33,North,-999,-999.0,-999.0,85,-99.99,,,-99.99,,2013-03-26 13:03:00,
2013-03-26 08:12:00,10.0,7.0,30.33,North,-999,-999.0,-999.0,85,-99.99,,,-99.99,,2013-03-26 13:12:00,
2013-03-26 08:22:00,10.0,7.0,30.33,North,-999,-999.0,-999.0,85,-99.99,,,-99.99,,2013-03-26 13:22:00,
2013-03-26 08:32:00,12.0,9.0,30.34,North,-999,-999.0,-999.0,85,-99.99,,,-99.99,,2013-03-26 13:32:00,
2013-03-26 08:42:00,12.0,9.0,30.34,North,-999,-999.0,-999.0,85,-99.99,,,-99.99,,2013-03-26 13:42:00,
2013-03-26 08:52:00,16.0,12.0,30.33,North,-999,-999.0,-999.0,85,-99.99,,,-99.99,,2013-03-26 13:52:00,
2013-03-26 09:02:00,16.0,12.0,30.33,North,-999,-999.0,-999.0,85,-99.99,,,-99.99,,2013-03-26 14:02:00,
2013-03-26 09:11:00,19.0,12.0,30.34,North,0,0.0,-999.0,73,-99.99,,,-99.99,,2013-03-26 14:11:00,
2013-03-26 09:22:00,19.0,12.0,30.34,North,0,0.0,-999.0,73,-99.99,,,-99.99,,2013-03-26 14:22:00,
2013-03-26 09:32:00,19.0,14.0,30.34,North,0,0.0,-999.0,79,-99.99,,,-99.99,,2013-03-26 14:32:00,
2013-03-26 09:42:00,19.0,14.0,30.34,North,0,0.0,-999.0,79,-99.99,,,-99.99,,2013-03-26 14:42:00,
2013-03-26 09:52:00,21.0,16.0,30.34,North,0,0.0,-999.0,79,-99.99,,,-99.99,,2013-03-26 14:52:00,
2013-03-26 10:02:00,21.0,16.0,30.34,North,0,0.0,-999.0,79,-99.99,,,-99.99,,2013-03-26 15:02:00,
2013-03-26 10:12:00,25.0,16.0,30.34,North,0,0.0,-999.0,68,-99.99,,,-99.99,,2013-03-26 15:12:00,
2013-03-26 10:22:00,25.0,16.0,30.34,North,0,0.0,-999.0,68,-99.99,,,-99.99,,2013-03-26 15:22:00,
2013-03-26 10:33:00,27.0,18.0,30.34,North,0,0.0,-999.0,68,-99.99,,,-99.99,,2013-03-26 15:33:00,
2013-03-26 10:43:00,27.0,18.0,30.34,North,0,0.0,-999.0,68,-99.99,,,-99.99,,2013-03-26 15:43:00,
2013-03-26 10:52:00,27.0,16.0,30.34,North,0,0.0,-999.0,63,-99.99,,,-99.99,,2013-03-26 15:52:00,
2013-03-26 11:02:00,27.0,16.0,30.34,North,0,0.0,-999.0,63,-99.99,,,-99.99,,2013-03-26 16:02:00,
2013-03-26 11:12:00,27.0,16.0,30.34,North,0,0.0,-999.0,63,-99.99,,,-99.99,,2013-03-26 16:12:00,
2013-03-26 11:22:00,27.0,16.0,30.34,North,0,0.0,-999.0,63,-99.99,,,-99.99,,2013-03-26 16:22:00,
2013-03-26 11:32:00,25.0,16.0,30.34,North,0,0.0,-999.0,68,-99.99,,,-99.99,,2013-03-26 16:32:00,
2013-03-26 11:42:00,25.0,16.0,30.34,North,0,0.0,-999.0,68,-99.99,,,-99.99,,2013-03-26 16:42:00,
2013-03-26 11:53:00,28.0,18.0,30.34,North,350,5.0,-999.0,63,-99.99,,,-99.99,,2013-03-26 16:53:00,
2013-03-26 12:02:00,28.0,18.0,30.34,North,350,5.0,-999.0,63,-99.99,,,-99.99,,2013-03-26 17:02:00,
2013-03-26 12:12:00,25.0,14.0,30.33,North,0,0.0,-999.0,63,-99.99,,,-99.99,,2013-03-26 17:12:00,
2013-03-26 12:23:00,25.0,14.0,30.33,North,0,0.0,-999.0,63,-99.99,,,-99.99,,2013-03-26 17:23:00,
2013-03-26 12:32:00,28.0,16.0,30.33,North,0,0.0,-999.0,58,-99.99,,,-99.99,,2013-03-26 17:32:00,
2013-03-26 12:42:00,28.0,16.0,30.33,North,0,0.0,-999.0,58,-99.99,,,-99.99,,2013-03-26 17:42:00,
2013-03-26 12:52:00,28.0,16.0,30.33,North,0,0.0,-999.0,58,-99.99,,,-99.99,,2013-03-26 17:52:00,
2013-03-26 13:02:00,28.0,16.0,30.33,North,0,0.0,-999.0,58,-99.99,,,-99.99,,2013-03-26 18:02:00,
2013-03-26 13:12:00,28.0,18.0,30.32,North,0,0.0,-999.0,63,-99.99,,,-99.99,,2013-03-26 18:12:00,
2013-03-26 13:23:00,28.0,18.0,30.32,North,0,0.0,-999.0,63,-99.99,,,-99.99,,2013-03-26 18:23:00,
2013-03-26 13:34:00,28.0,16.0,30.32,North,0,0.0,-999.0,58,-99.99,,,-99.99,,2013-03-26 18:34:00,
2013-03-26 13:42:00,28.0,16.0,30.32,North,0,0.0,-999.0,58,-99.99,,,-99.99,,2013-03-26 18:42:00,
2013-03-26 13:52:00,30.0,18.0,30.31,SSW,210,5.0,-999.0,59,-99.99,,,-99.99,,2013-03-26 18:52:00,
2013-03-26 14:02:00,30.0,18.0,30.31,SSW,210,5.0,-999.0,59,-99.99,,,-99.99,,2013-03-26 19:02:00,
2013-03-26 14:12:00,30.0,18.0,30.31,North,0,0.0,-999.0,59,-99.99,,,-99.99,,2013-03-26 19:12:00,
2013-03-26 14:22:00,30.0,18.0,30.31,North,0,0.0,-999.0,59,-99.99,,,-99.99,,2013-03-26 19:22:00,
2013-03-26 14:32:00,30.0,18.0,30.30,North,0,0.0,-999.0,59,-99.99,,,-99.99,,2013-03-26 19:32:00,
2013-03-26 14:42:00,30.0,18.0,30.30,North,0,0.0,-999.0,59,-99.99,,,-99.99,,2013-03-26 19:42:00,
2013-03-26 14:52:00,32.0,18.0,30.29,ESE,120,7.0,-999.0,54,-99.99,,,-99.99,,2013-03-26 19:52:00,
2013-03-26 15:02:00,32.0,18.0,30.29,ESE,120,7.0,-999.0,54,-99.99,,,-99.99,,2013-03-26 20:02:00,
2013-03-26 15:12:00,32.0,19.0,30.28,SE,140,9.0,-999.0,59,-99.99,,,-99.99,,2013-03-26 20:12:00,
2013-03-26 15:22:00,32.0,19.0,30.28,SE,140,9.0,-999.0,59,-99.99,,,-99.99,,2013-03-26 20:22:00,
2013-03-26 15:32:00,34.0,18.0,30.27,WSW,250,5.0,-999.0,51,-99.99,,,-99.99,,2013-03-26 20:32:00,
2013-03-26 15:42:00,34.0,18.0,30.27,WSW,250,5.0,-999.0,51,-99.99,,,-99.99,,2013-03-26 20:42:00,
2013-03-26 15:52:00,34.0,18.0,30.27,North,0,0.0,-999.0,51,-99.99,,,-99.99,,2013-03-26 20:52:00,
2013-03-26 16:02:00,34.0,18.0,30.27,North,0,0.0,-999.0,51,-99.99,,,-99.99,,2013-03-26 21:02:00,
2013-03-26 16:12:00,36.0,19.0,30.26,North,0,0.0,-999.0,51,-99.99,,,-99.99,,2013-03-26 21:12:00,
2013-03-26 16:22:00,36.0,19.0,30.26,North,0,0.0,-999.0,51,-99.99,,,-99.99,,2013-03-26 21:22:00,
2013-03-26 16:32:00,36.0,19.0,30.25,South,190,7.0,-999.0,51,-99.99,,,-99.99,,2013-03-26 21:32:00,
2013-03-26 16:42:00,36.0,19.0,30.25,South,190,7.0,-999.0,51,-99.99,,,-99.99,,2013-03-26 21:42:00,
2013-03-26 16:52:00,36.0,18.0,30.25,SSW,200,8.0,-999.0,47,-99.99,,,-99.99,,2013-03-26 21:52:00,
2013-03-26 17:02:00,36.0,18.0,30.25,SSW,200,8.0,-999.0,47,-99.99,,,-99.99,,2013-03-26 22:02:00,
2013-03-26 17:12:00,36.0,18.0,30.25,SSW,200,8.0,-999.0,47,-99.99,,,-99.99,,2013-03-26 22:12:00,
2013-03-26 17:22:00,36.0,19.0,30.25,North,0,0.0,-999.0,51,-99.99,,,-99.99,,2013-03-26 22:22:00,
2013-03-26 17:33:00,36.0,19.0,30.25,SSE,160,5.0,-999.0,51,-99.99,,,-99.99,,2013-03-26 22:33:00,
2013-03-26 17:42:00,36.0,19.0,30.25,SSE,160,5.0,-999.0,51,-99.99,,,-99.99,,2013-03-26 22:42:00,
2013-03-26 17:52:00,36.0,19.0,30.24,North,0,0.0,-999.0,51,-99.99,,,-99.99,,2013-03-26 22:52:00,
2013-03-26 18:01:00,36.0,19.0,30.24,North,0,0.0,-999.0,51,-99.99,,,-99.99,,2013-03-26 23:01:00,
2013-03-26 18:10:00,36.0,19.0,30.24,North,0,0.0,-999.0,51,-99.99,,,-99.99,,2013-03-26 23:10:00,
2013-03-26 18:22:00,36.0,19.0,30.24,North,0,0.0,-999.0,51,-99.99,,,-99.99,,2013-03-26 23:22:00,
2013-03-26 18:32:00,36.0,19.0,30.23,SSE,150,5.0,-999.0,51,-99.99,,,-99.99,,2013-03-26 23:32:00,
2013-03-26 18:43:00,36.0,19.0,30.23,SSE,150,5.0,-999.0,51,-99.99,,,-99.99,,2013-03-26 23:43:00,
2013-03-26 18:53:00,36.0,19.0,30.23,ESE,120,6.0,-999.0,51,-99.99,,,-99.99,,2013-03-26 23:53:00,
2013-03-26 19:02:00,36.0,19.0,30.23,ESE,120,6.0,-999.0,51,-99.99,,,-99.99,,2013-03-27 00:02:00,
2013-03-26 19:12:00,36.0,21.0,30.23,SE,130,7.0,-999.0,55,-99.99,,,-99.99,,2013-03-27 00:12:00,
2013-03-26 19:22:00,36.0,21.0,30.23,SE,130,7.0,-999.0,55,-99.99,,,-99.99,,2013-03-27 00:22:00,
2013-03-26 19:32:00,34.0,21.0,30.23,East,100,6.0,-999.0,59,-99.99,,,-99.99,,2013-03-27 00:32:00,
2013-03-26 19:42:00,34.0,21.0,30.23,East,100,6.0,-999.0,59,-99.99,,,-99.99,,2013-03-27 00:42:00,
2013-03-26 19:52:00,32.0,21.0,30.23,North,0,0.0,-999.0,63,-99.99,,,-99.99,,2013-03-27 00:52:00,
2013-03-26 20:02:00,32.0,21.0,30.23,North,0,0.0,-999.0,63,-99.99,,,-99.99,,2013-03-27 01:02:00,
2013-03-26 20:12:00,30.0,21.0,30.23,East,100,5.0,-999.0,68,-99.99,,,-99.99,,2013-03-27 01:12:00,
2013-03-26 20:22:00,30.0,21.0,30.23,East,100,5.0,-999.0,68,-99.99,,,-99.99,,2013-03-27 01:22:00,
2013-03-26 20:33:00,30.0,23.0,30.23,North,0,0.0,-999.0,74,-99.99,,,-99.99,,2013-03-27 01:33:00,
2013-03-26 20:42:00,30.0,23.0,30.23,North,0,0.0,-999.0,74,-99.99,,,-99.99,,2013-03-27 01:42:00,
2013-03-26 20:52:00,30.0,21.0,30.23,North,0,0.0,-999.0,68,-99.99,,,-99.99,,2013-03-27 01:52:00,
2013-03-26 21:03:00,30.0,21.0,30.23,North,0,0.0,-999.0,68,-99.99,,,-99.99,,2013-03-27 02:03:00,
2013-03-26 21:12:00,30.0,21.0,30.23,North,0,0.0,-999.0,68,-99.99,,,-99.99,,2013-03-27 02:12:00,
2013-03-26 21:22:00,30.0,21.0,30.24,North,0,0.0,-999.0,68,-99.99,,,-99.99,,2013-03-27 02:22:00,
2013-03-26 21:32:00,28.0,21.0,30.24,East,90,5.0,-999.0,74,-99.99,,,-99.99,,2013-03-27 02:32:00,
2013-03-26 21:42:00,28.0,21.0,30.24,East,90,5.0,-999.0,74,-99.99,,,-99.99,,2013-03-27 02:42:00,
2013-03-26 21:52:00,30.0,21.0,30.25,East,100,5.0,-999.0,68,-99.99,,,-99.99,,2013-03-27 02:52:00,
2013-03-26 22:02:00,30.0,21.0,30.25,East,100,5.0,-999.0,68,-99.99,,,-99.99,,2013-03-27 03:02:00,
2013-03-26 22:12:00,30.0,21.0,30.25,East,100,7.0,-999.0,68,-99.99,,,-99.99,,2013-03-27 03:12:00,
2013-03-26 22:22:00,30.0,21.0,30.25,East,100,7.0,-999.0,68,-99.99,,,-99.99,,2013-03-27 03:22:00,
2013-03-26 22:33:00,30.0,21.0,30.25,ESE,110,7.0,-999.0,68,-99.99,,,-99.99,,2013-03-27 03:33:00,
2013-03-26 22:42:00,30.0,21.0,30.25,ESE,110,7.0,-999.0,68,-99.99,,,-99.99,,2013-03-27 03:42:00,
2013-03-26 22:52:00,30.0,23.0,30.25,ESE,110,8.0,-999.0,74,-99.99,,,-99.99,,2013-03-27 03:52:00,
2013-03-26 23:02:00,30.0,23.0,30.25,ESE,110,8.0,-999.0,74,-99.99,,,-99.99,,2013-03-27 04:02:00,
2013-03-26 23:12:00,30.0,23.0,30.25,ESE,110,8.0,-999.0,74,-99.99,,,-99.99,,2013-03-27 04:12:00,
2013-03-26 23:23:00,30.0,23.0,30.25,ESE,110,8.0,-999.0,74,-99.99,,,-99.99,,2013-03-27 04:23:00,
2013-03-26 23:33:00,28.0,21.0,30.25,ESE,110,9.0,-999.0,74,-99.99,,,-99.99,,2013-03-27 04:33:00,
2013-03-26 23:42:00,28.0,21.0,30.25,ESE,110,9.0,-999.0,74,-99.99,,,-99.99,,2013-03-27 04:42:00,
2013-03-26 23:52:00,28.0,21.0,30.25,ESE,110,8.0,-999.0,74,-99.99,,,-99.99,,2013-03-27 04:52:00,